ASA686 KSEA-KSBA

Flight info

Callsign ASA686
Flight time 1h 54m
Altitude 37000
Route SUMMA2 SUMMA JINMO Q7 AVE GVO HABUT
Aircraft B739/M-SDE2E3FGHIRWXY/LB1

Departure

Time 2026-05-09 00:45
Airport Seattle–Tacoma International Airport (KSEA)

Arrival

Time 2026-05-09 02:39
Airport Santa Barbara Municipal Airport (KSBA)
Time Latitude Longitude Altitude Speed Heading
2026-05-09 00:26 47.44548 -122.30154 433 ft 0 kts 136°
2026-05-09 00:36 47.44554 -122.30164 433 ft 2 kts 136°
2026-05-09 00:37 47.44565 -122.30179 433 ft 2 kts 136°
2026-05-09 00:37 47.44574 -122.30192 433 ft 0 kts 136°
2026-05-09 00:37 47.44581 -122.30205 433 ft 2 kts 102°
2026-05-09 00:37 47.44579 -122.30227 433 ft 2 kts 58°
2026-05-09 00:38 47.44572 -122.30237 433 ft 0 kts 30°
2026-05-09 00:38 47.44566 -122.30241 433 ft 0 kts 27°
2026-05-09 00:40 47.44590 -122.30222 433 ft 9 kts 27°
2026-05-09 00:40 47.44671 -122.30235 433 ft 16 kts 322°
2026-05-09 00:41 47.44765 -122.30566 433 ft 15 kts 274°
2026-05-09 00:41 47.44845 -122.30631 433 ft 16 kts 359°
2026-05-09 00:41 47.44969 -122.30630 433 ft 19 kts
2026-05-09 00:41 47.45113 -122.30631 433 ft 22 kts 359°
2026-05-09 00:42 47.45278 -122.30628 433 ft 25 kts
2026-05-09 00:42 47.45462 -122.30625 433 ft 27 kts 359°
2026-05-09 00:42 47.45658 -122.30624 433 ft 27 kts
2026-05-09 00:42 47.45847 -122.30627 433 ft 26 kts
2026-05-09 00:43 47.46028 -122.30623 433 ft 25 kts
2026-05-09 00:43 47.46199 -122.30619 433 ft 23 kts
2026-05-09 00:43 47.46334 -122.30624 433 ft 13 kts 344°
2026-05-09 00:43 47.46370 -122.30718 433 ft 11 kts 251°
2026-05-09 00:44 47.46271 -122.30781 433 ft 23 kts 181°
2026-05-09 00:44 47.45977 -122.30785 433 ft 72 kts 180°
2026-05-09 00:44 47.45204 -122.30788 433 ft 145 kts 181°
2026-05-09 00:44 47.44056 -122.30784 834 ft 175 kts 181°
2026-05-09 00:45 47.42781 -122.30719 1457 ft 197 kts 179°
2026-05-09 00:45 47.41334 -122.30627 2060 ft 222 kts 181°
2026-05-09 00:45 47.39735 -122.30572 2690 ft 237 kts 181°
2026-05-09 00:45 47.38052 -122.30547 3302 ft 253 kts 181°
2026-05-09 00:46 47.36263 -122.30527 4026 ft 264 kts 181°
2026-05-09 00:46 47.34395 -122.30518 4889 ft 270 kts 182°
2026-05-09 00:46 47.32526 -122.30523 5777 ft 273 kts 182°
2026-05-09 00:46 47.30637 -122.30533 6599 ft 278 kts 182°
2026-05-09 00:47 47.28686 -122.30538 7414 ft 283 kts 183°
2026-05-09 00:47 47.26708 -122.30542 8231 ft 287 kts 183°
2026-05-09 00:47 47.24709 -122.30543 9005 ft 293 kts 183°
2026-05-09 00:47 47.22684 -122.30097 9774 ft 303 kts 166°
2026-05-09 00:48 47.20672 -122.28976 10321 ft 318 kts 161°
2026-05-09 00:48 47.18560 -122.27735 10587 ft 340 kts 162°
2026-05-09 00:48 47.16266 -122.26469 10937 ft 359 kts 163°
2026-05-09 00:48 47.13922 -122.25233 11582 ft 367 kts 164°
2026-05-09 00:49 47.11494 -122.23976 12275 ft 373 kts 165°
2026-05-09 00:49 47.09039 -122.22716 13006 ft 377 kts 165°
2026-05-09 00:49 47.06546 -122.21443 13715 ft 382 kts 165°
2026-05-09 00:49 47.04033 -122.20163 14404 ft 388 kts 165°
2026-05-09 00:50 47.01466 -122.18858 15125 ft 392 kts 166°
2026-05-09 00:50 46.98882 -122.17546 15805 ft 397 kts 166°
2026-05-09 00:50 46.96292 -122.16231 16531 ft 399 kts 166°
2026-05-09 00:50 46.93655 -122.14894 17228 ft 403 kts 166°
2026-05-09 00:51 46.91003 -122.13552 17850 ft 407 kts 166°
2026-05-09 00:51 46.88307 -122.12191 18361 ft 415 kts 166°
2026-05-09 00:51 46.85547 -122.10798 18948 ft 420 kts 166°
2026-05-09 00:51 46.82803 -122.09412 19629 ft 421 kts 166°
2026-05-09 00:52 46.80016 -122.08006 20299 ft 423 kts 166°
2026-05-09 00:52 46.77266 -122.06622 20893 ft 425 kts 166°
2026-05-09 00:52 46.74452 -122.05208 21433 ft 429 kts 166°
2026-05-09 00:52 46.71610 -122.03781 21936 ft 434 kts 166°
2026-05-09 00:53 46.68737 -122.02353 22404 ft 438 kts 167°
2026-05-09 00:53 46.65814 -122.01174 22911 ft 437 kts 174°
2026-05-09 00:53 46.62857 -122.00610 23408 ft 431 kts 186°
2026-05-09 00:53 46.59898 -122.00922 24027 ft 423 kts 195°
2026-05-09 00:54 46.56997 -122.01665 24539 ft 420 kts 200°
2026-05-09 00:54 46.54245 -122.02859 24980 ft 418 kts 207°
2026-05-09 00:54 46.51505 -122.04346 25359 ft 422 kts 209°
2026-05-09 00:54 46.48767 -122.05910 25851 ft 424 kts 209°
2026-05-09 00:55 46.46012 -122.07485 26304 ft 427 kts 209°
2026-05-09 00:55 46.43257 -122.09047 26806 ft 428 kts 208°
2026-05-09 00:55 46.40463 -122.10513 27305 ft 432 kts 205°
2026-05-09 00:55 46.37500 -122.11534 27796 ft 443 kts 194°
2026-05-09 00:56 46.34417 -122.11582 28271 ft 455 kts 182°
2026-05-09 00:56 46.31239 -122.11035 28778 ft 458 kts 178°
2026-05-09 00:56 46.28068 -122.10342 29138 ft 462 kts 177°
2026-05-09 00:56 46.24925 -122.09608 29596 ft 463 kts 177°
2026-05-09 00:57 46.21722 -122.08845 29971 ft 466 kts 177°
2026-05-09 00:57 46.18559 -122.08087 30383 ft 467 kts 176°
2026-05-09 00:57 46.15328 -122.07316 30686 ft 470 kts 176°
2026-05-09 00:57 46.12136 -122.06551 31067 ft 470 kts 176°
2026-05-09 00:58 46.08889 -122.05773 31597 ft 467 kts 176°
2026-05-09 00:58 46.05718 -122.05014 32054 ft 465 kts 176°
2026-05-09 00:58 46.02535 -122.04253 32525 ft 462 kts 176°
2026-05-09 00:58 45.99384 -122.03503 32976 ft 460 kts 176°
2026-05-09 00:59 45.96243 -122.02756 33329 ft 460 kts 176°
2026-05-09 00:59 45.93068 -122.02003 33703 ft 459 kts 176°
2026-05-09 00:59 45.89905 -122.01255 34070 ft 458 kts 176°
2026-05-09 00:59 45.86784 -122.00516 34422 ft 455 kts 176°
2026-05-09 01:00 45.83683 -121.99782 34762 ft 452 kts 176°
2026-05-09 01:00 45.80553 -121.99043 35032 ft 452 kts 176°
2026-05-09 01:00 45.77429 -121.98307 35257 ft 453 kts 176°
2026-05-09 01:00 45.74314 -121.97575 35472 ft 454 kts 176°
2026-05-09 01:01 45.71192 -121.96844 35621 ft 456 kts 176°
2026-05-09 01:01 45.68054 -121.96107 35875 ft 455 kts 176°
2026-05-09 01:01 45.64932 -121.95373 36201 ft 453 kts 176°
2026-05-09 01:01 45.61843 -121.94647 36597 ft 450 kts 176°
2026-05-09 01:02 45.58762 -121.93924 36842 ft 450 kts 176°
2026-05-09 01:02 45.55674 -121.93201 37137 ft 448 kts 176°
2026-05-09 01:02 45.49508 -121.91766 37160 ft 453 kts 176°
2026-05-09 01:03 45.43323 -121.90323 37149 ft 448 kts 176°
2026-05-09 01:03 45.37184 -121.88893 37148 ft 446 kts 177°
2026-05-09 01:04 45.31039 -121.87470 37153 ft 448 kts 176°
2026-05-09 01:04 45.24876 -121.86045 37150 ft 448 kts 176°
2026-05-09 01:05 45.18725 -121.84624 37146 ft 448 kts 176°
2026-05-09 01:06 45.09523 -121.82505 37151 ft 448 kts 176°
2026-05-09 01:06 45.03357 -121.81090 37164 ft 449 kts 176°
2026-05-09 01:07 44.97215 -121.79669 37172 ft 443 kts 176°
2026-05-09 01:07 44.91219 -121.78276 37166 ft 440 kts 177°
2026-05-09 01:08 44.85072 -121.76897 37186 ft 448 kts 177°
2026-05-09 01:08 44.78918 -121.75505 37177 ft 454 kts 177°
2026-05-09 01:09 44.72644 -121.74083 37174 ft 453 kts 177°
2026-05-09 01:09 44.66467 -121.72675 37182 ft 447 kts 177°
2026-05-09 01:10 44.60313 -121.71284 37174 ft 449 kts 177°
2026-05-09 01:10 44.54163 -121.69899 37180 ft 450 kts 178°
2026-05-09 01:11 44.47966 -121.68504 37182 ft 450 kts 178°
2026-05-09 01:11 44.41838 -121.67125 37188 ft 449 kts 177°
2026-05-09 01:12 44.35647 -121.65738 37184 ft 450 kts 178°
2026-05-09 01:12 44.29482 -121.64344 37190 ft 451 kts 177°
2026-05-09 01:13 44.23333 -121.62913 37189 ft 451 kts 177°
2026-05-09 01:13 44.17141 -121.61473 37188 ft 452 kts 177°
2026-05-09 01:14 44.10953 -121.60040 37196 ft 452 kts 177°
2026-05-09 01:14 44.04735 -121.58604 37200 ft 452 kts 178°
2026-05-09 01:15 43.98529 -121.57175 37199 ft 453 kts 177°
2026-05-09 01:15 43.92339 -121.55753 37200 ft 452 kts 178°
2026-05-09 01:16 43.86161 -121.54334 37212 ft 451 kts 178°
2026-05-09 01:16 43.79954 -121.52916 37205 ft 452 kts 178°
2026-05-09 01:17 43.70638 -121.50791 37207 ft 452 kts 178°
2026-05-09 01:17 43.64454 -121.49384 37214 ft 453 kts 178°
2026-05-09 01:18 43.58205 -121.47965 37212 ft 453 kts 178°
2026-05-09 01:18 43.52034 -121.46565 37217 ft 452 kts 178°
2026-05-09 01:19 43.45820 -121.45160 37220 ft 452 kts 178°
2026-05-09 01:19 43.39623 -121.43763 37222 ft 453 kts 178°
2026-05-09 01:20 43.33424 -121.42366 37232 ft 452 kts 178°
2026-05-09 01:20 43.27216 -121.40971 37241 ft 452 kts 178°
2026-05-09 01:21 43.20994 -121.39578 37235 ft 453 kts 178°
2026-05-09 01:21 43.14793 -121.38191 37238 ft 454 kts 179°
2026-05-09 01:22 43.08567 -121.36798 37234 ft 452 kts 179°
2026-05-09 01:22 43.02408 -121.35425 37237 ft 452 kts 179°
2026-05-09 01:23 42.96201 -121.34045 37235 ft 452 kts 179°
2026-05-09 01:23 42.89966 -121.32661 37254 ft 450 kts 179°
2026-05-09 01:24 42.83799 -121.31294 37239 ft 450 kts 179°
2026-05-09 01:24 42.77612 -121.29931 37232 ft 454 kts 179°
2026-05-09 01:25 42.71399 -121.28561 37244 ft 454 kts 179°
2026-05-09 01:25 42.65163 -121.27187 37387 ft 454 kts 179°
2026-05-09 01:26 42.62051 -121.26504 37248 ft 454 kts 180°
2026-05-09 01:26 42.58955 -121.25820 37240 ft 449 kts 180°
2026-05-09 01:26 42.52771 -121.24462 37223 ft 450 kts 180°
2026-05-09 01:27 42.46576 -121.23112 37231 ft 452 kts 180°
2026-05-09 01:27 42.40383 -121.21762 37227 ft 454 kts 180°
2026-05-09 01:28 42.34140 -121.20399 37231 ft 452 kts 180°
2026-05-09 01:28 42.27932 -121.19044 37229 ft 450 kts 180°
2026-05-09 01:29 42.21727 -121.17699 37230 ft 452 kts 180°
2026-05-09 01:29 42.15527 -121.16360 37233 ft 454 kts 180°
2026-05-09 01:30 42.09270 -121.15007 37233 ft 454 kts 180°
2026-05-09 01:30 42.03040 -121.13660 37227 ft 453 kts 180°
2026-05-09 01:31 41.96815 -121.12322 37228 ft 454 kts 180°
2026-05-09 01:31 41.90581 -121.10981 37226 ft 454 kts 180°
2026-05-09 01:32 41.84369 -121.09647 37226 ft 453 kts 180°
2026-05-09 01:32 41.78106 -121.08308 37223 ft 455 kts 180°
2026-05-09 01:33 41.71867 -121.06975 37220 ft 453 kts 180°
2026-05-09 01:33 41.65616 -121.05642 37223 ft 454 kts 180°
2026-05-09 01:34 41.59366 -121.04314 37230 ft 456 kts 180°
2026-05-09 01:34 41.53099 -121.02982 37238 ft 454 kts 180°
2026-05-09 01:35 41.46903 -121.01666 37242 ft 453 kts 180°
2026-05-09 01:35 41.40668 -121.00350 37244 ft 456 kts 180°
2026-05-09 01:36 41.34380 -120.99023 37246 ft 456 kts 180°
2026-05-09 01:36 41.28127 -120.97704 37251 ft 455 kts 180°
2026-05-09 01:37 41.21868 -120.96387 37253 ft 455 kts 180°
2026-05-09 01:37 41.15611 -120.95075 37259 ft 456 kts 180°
2026-05-09 01:38 41.09378 -120.93770 37256 ft 456 kts 180°
2026-05-09 01:38 41.03099 -120.92458 37258 ft 458 kts 180°
2026-05-09 01:39 40.96791 -120.91396 37260 ft 451 kts 185°
2026-05-09 01:39 40.90587 -120.90926 37267 ft 448 kts 186°
2026-05-09 01:40 40.84338 -120.90494 37268 ft 451 kts 186°
2026-05-09 01:40 40.78068 -120.90030 37266 ft 449 kts 186°
2026-05-09 01:41 40.71789 -120.89547 37267 ft 451 kts 186°
2026-05-09 01:41 40.65541 -120.89059 37260 ft 451 kts 186°
2026-05-09 01:42 40.59288 -120.88564 37266 ft 450 kts 186°
2026-05-09 01:42 40.53043 -120.88072 37261 ft 451 kts 185°
2026-05-09 01:43 40.46778 -120.87577 37262 ft 451 kts 185°
2026-05-09 01:43 40.40494 -120.87081 37246 ft 451 kts 185°
2026-05-09 01:44 40.34260 -120.86588 37245 ft 451 kts 185°
2026-05-09 01:44 40.27951 -120.86093 37229 ft 453 kts 185°
2026-05-09 01:45 40.21664 -120.85599 37229 ft 452 kts 185°
2026-05-09 01:45 40.15369 -120.85105 37219 ft 452 kts 185°
2026-05-09 01:46 40.09114 -120.84612 37213 ft 450 kts 185°
2026-05-09 01:46 40.02822 -120.84122 37214 ft 452 kts 185°
2026-05-09 01:47 39.96521 -120.83633 37219 ft 453 kts 185°
2026-05-09 01:47 39.90251 -120.83144 37230 ft 453 kts 185°
2026-05-09 01:48 39.83960 -120.82652 37239 ft 452 kts 185°
2026-05-09 01:48 39.77649 -120.82162 37248 ft 453 kts 185°
2026-05-09 01:49 39.71367 -120.81677 37248 ft 453 kts 185°
2026-05-09 01:49 39.65016 -120.81187 37236 ft 454 kts 185°
2026-05-09 01:50 39.58707 -120.80700 37217 ft 454 kts 184°
2026-05-09 01:50 39.52404 -120.80213 37216 ft 453 kts 184°
2026-05-09 01:51 39.46088 -120.79727 37196 ft 454 kts 184°
2026-05-09 01:51 39.39754 -120.79240 37196 ft 453 kts 184°
2026-05-09 01:52 39.33469 -120.78760 37193 ft 455 kts 184°
2026-05-09 01:52 39.27114 -120.78275 37190 ft 456 kts 184°
2026-05-09 01:53 39.20766 -120.77789 37176 ft 455 kts 184°
2026-05-09 01:53 39.14454 -120.77308 37157 ft 455 kts 184°
2026-05-09 01:54 39.08146 -120.76828 37121 ft 456 kts 184°
2026-05-09 01:54 39.01817 -120.76347 37096 ft 456 kts 184°
2026-05-09 01:55 38.95477 -120.75865 37080 ft 454 kts 184°
2026-05-09 01:55 38.89193 -120.75391 37084 ft 455 kts 184°
2026-05-09 01:56 38.82818 -120.74911 37107 ft 456 kts 183°
2026-05-09 01:56 38.76459 -120.74431 37111 ft 457 kts 183°
2026-05-09 01:57 38.70142 -120.73954 37111 ft 455 kts 183°
2026-05-09 01:57 38.63830 -120.73479 37106 ft 455 kts 183°
2026-05-09 01:58 38.57491 -120.73005 37097 ft 456 kts 183°
2026-05-09 01:58 38.51113 -120.72529 37088 ft 457 kts 183°
2026-05-09 01:59 38.44797 -120.72056 37078 ft 457 kts 182°
2026-05-09 01:59 38.38433 -120.71582 37074 ft 458 kts 182°
2026-05-09 02:00 38.32034 -120.71105 37071 ft 457 kts 182°
2026-05-09 02:00 38.25708 -120.70634 37059 ft 457 kts 182°
2026-05-09 02:01 38.19349 -120.70163 37061 ft 458 kts 182°
2026-05-09 02:01 38.12995 -120.69692 37053 ft 458 kts 182°
2026-05-09 02:02 38.06619 -120.69221 37049 ft 459 kts 182°
2026-05-09 02:02 38.00215 -120.68748 37035 ft 459 kts 182°
2026-05-09 02:03 37.93832 -120.68278 37027 ft 458 kts 182°
2026-05-09 02:03 37.87480 -120.67809 37012 ft 458 kts 182°
2026-05-09 02:04 37.81100 -120.67342 37003 ft 459 kts 181°
2026-05-09 02:04 37.74726 -120.66876 36999 ft 459 kts 182°
2026-05-09 02:05 37.68333 -120.66408 36996 ft 460 kts 181°
2026-05-09 02:05 37.61919 -120.65939 36989 ft 460 kts 181°
2026-05-09 02:06 37.55506 -120.65471 36990 ft 460 kts 181°
2026-05-09 02:07 37.45884 -120.64771 36985 ft 460 kts 181°
2026-05-09 02:07 37.39492 -120.64307 36981 ft 461 kts 181°
2026-05-09 02:08 37.33085 -120.63512 36969 ft 465 kts 173°
2026-05-09 02:08 37.26774 -120.61430 36973 ft 468 kts 166°
2026-05-09 02:09 37.20570 -120.58936 36974 ft 468 kts 165°
2026-05-09 02:09 37.14368 -120.56426 36970 ft 468 kts 165°
2026-05-09 02:10 37.08162 -120.53934 36967 ft 468 kts 165°
2026-05-09 02:10 37.01940 -120.51450 36962 ft 468 kts 165°
2026-05-09 02:11 36.95719 -120.48975 36965 ft 469 kts 165°
2026-05-09 02:11 36.89484 -120.46500 36963 ft 468 kts 165°
2026-05-09 02:12 36.83286 -120.44044 36957 ft 468 kts 165°
2026-05-09 02:12 36.77054 -120.41581 36967 ft 468 kts 164°
2026-05-09 02:13 36.70830 -120.39126 36963 ft 468 kts 164°
2026-05-09 02:13 36.64586 -120.36666 36969 ft 468 kts 164°
2026-05-09 02:14 36.58370 -120.34222 36966 ft 467 kts 165°
2026-05-09 02:14 36.52209 -120.31802 36965 ft 467 kts 165°
2026-05-09 02:15 36.46011 -120.29374 36969 ft 467 kts 165°
2026-05-09 02:15 36.39771 -120.26933 36959 ft 467 kts 164°
2026-05-09 02:16 36.33601 -120.24524 36963 ft 467 kts 164°
2026-05-09 02:16 36.27410 -120.22110 36962 ft 466 kts 164°
2026-05-09 02:17 36.21199 -120.19691 36661 ft 461 kts 164°
2026-05-09 02:17 36.18165 -120.18511 35979 ft 462 kts 164°
2026-05-09 02:17 36.15096 -120.17319 35444 ft 458 kts 164°
2026-05-09 02:17 36.12075 -120.16146 34953 ft 454 kts 164°
2026-05-09 02:18 36.09071 -120.14980 34393 ft 452 kts 164°
2026-05-09 02:18 36.06101 -120.13829 33866 ft 448 kts 164°
2026-05-09 02:18 36.03134 -120.12680 33341 ft 445 kts 164°
2026-05-09 02:18 36.00154 -120.11527 32809 ft 443 kts 164°
2026-05-09 02:19 35.97249 -120.10404 32274 ft 442 kts 164°
2026-05-09 02:19 35.94300 -120.09265 31732 ft 440 kts 164°
2026-05-09 02:19 35.91398 -120.08145 31188 ft 438 kts 163°
2026-05-09 02:19 35.88502 -120.07028 30656 ft 436 kts 163°
2026-05-09 02:20 35.85596 -120.05908 30105 ft 434 kts 163°
2026-05-09 02:20 35.82725 -120.04802 29566 ft 432 kts 163°
2026-05-09 02:20 35.79899 -120.03715 29051 ft 430 kts 163°
2026-05-09 02:20 35.77042 -120.02615 28517 ft 428 kts 163°
2026-05-09 02:21 35.74218 -120.01530 27987 ft 426 kts 163°
2026-05-09 02:21 35.71404 -120.00449 27469 ft 423 kts 163°
2026-05-09 02:21 35.68601 -119.99387 26944 ft 421 kts 165°
2026-05-09 02:21 35.65764 -119.98526 26427 ft 418 kts 171°
2026-05-09 02:22 35.62894 -119.98138 25918 ft 413 kts 180°
2026-05-09 02:22 35.60043 -119.98239 25416 ft 409 kts 186°
2026-05-09 02:22 35.57184 -119.98517 24893 ft 406 kts 187°
2026-05-09 02:22 35.54385 -119.98825 24388 ft 403 kts 187°
2026-05-09 02:23 35.51617 -119.99132 23891 ft 400 kts 187°
2026-05-09 02:23 35.48871 -119.99429 23401 ft 397 kts 187°
2026-05-09 02:23 35.46120 -119.99722 22903 ft 394 kts 187°
2026-05-09 02:23 35.43382 -120.00010 22399 ft 391 kts 187°
2026-05-09 02:24 35.40682 -120.00290 21906 ft 388 kts 186°
2026-05-09 02:24 35.38010 -120.00566 21424 ft 384 kts 186°
2026-05-09 02:24 35.35376 -120.00836 20947 ft 381 kts 186°
2026-05-09 02:24 35.32732 -120.01106 20460 ft 379 kts 186°
2026-05-09 02:25 35.30104 -120.01374 19979 ft 376 kts 186°
2026-05-09 02:25 35.27522 -120.01636 19508 ft 374 kts 186°
2026-05-09 02:25 35.24941 -120.01899 19035 ft 371 kts 186°
2026-05-09 02:25 35.22364 -120.02160 18573 ft 368 kts 186°
2026-05-09 02:26 35.19809 -120.02419 18119 ft 366 kts 186°
2026-05-09 02:26 35.17299 -120.02673 17678 ft 363 kts 186°
2026-05-09 02:26 35.14785 -120.02927 17238 ft 360 kts 186°
2026-05-09 02:26 35.12309 -120.03178 16796 ft 358 kts 186°
2026-05-09 02:27 35.09837 -120.03427 16355 ft 355 kts 186°
2026-05-09 02:27 35.07375 -120.03676 15916 ft 353 kts 185°
2026-05-09 02:27 35.04913 -120.03924 15472 ft 351 kts 185°
2026-05-09 02:27 35.02508 -120.04166 15033 ft 349 kts 185°
2026-05-09 02:28 35.00090 -120.04409 14596 ft 347 kts 185°
2026-05-09 02:28 34.97684 -120.04652 14146 ft 345 kts 185°
2026-05-09 02:28 34.95285 -120.04893 13700 ft 342 kts 186°
2026-05-09 02:28 34.92916 -120.05130 13254 ft 340 kts 186°
2026-05-09 02:29 34.90580 -120.05365 12816 ft 338 kts 186°
2026-05-09 02:29 34.88218 -120.05602 12375 ft 336 kts 185°
2026-05-09 02:29 34.85919 -120.05833 11937 ft 334 kts 185°
2026-05-09 02:29 34.83608 -120.06064 11495 ft 332 kts 185°
2026-05-09 02:30 34.81281 -120.06297 11045 ft 330 kts 185°
2026-05-09 02:30 34.79025 -120.06523 10622 ft 328 kts 186°
2026-05-09 02:30 34.76747 -120.06751 10192 ft 325 kts 185°
2026-05-09 02:30 34.74518 -120.06973 9841 ft 311 kts 185°
2026-05-09 02:31 34.72409 -120.07184 9514 ft 301 kts 185°
2026-05-09 02:31 34.70349 -120.07390 9121 ft 294 kts 185°
2026-05-09 02:31 34.68334 -120.07592 8688 ft 288 kts 185°
2026-05-09 02:31 34.66367 -120.07788 8332 ft 281 kts 185°
2026-05-09 02:32 34.64400 -120.07985 7942 ft 282 kts 185°
2026-05-09 02:32 34.62455 -120.08179 7583 ft 281 kts 185°
2026-05-09 02:32 34.60490 -120.08375 7224 ft 280 kts 185°
2026-05-09 02:32 34.58558 -120.08568 6866 ft 280 kts 185°
2026-05-09 02:33 34.56623 -120.08760 6513 ft 279 kts 184°
2026-05-09 02:33 34.54690 -120.08952 6158 ft 278 kts 185°
2026-05-09 02:33 34.52747 -120.09120 5799 ft 277 kts 182°
2026-05-09 02:33 34.50808 -120.09127 5402 ft 278 kts 178°
2026-05-09 02:34 34.48899 -120.09059 5179 ft 272 kts 178°
2026-05-09 02:34 34.47058 -120.08999 5135 ft 262 kts 178°
2026-05-09 02:34 34.45235 -120.08815 4508 ft 266 kts 166°
2026-05-09 02:34 34.43630 -120.07733 3762 ft 264 kts 133°
2026-05-09 02:35 34.42637 -120.05957 3256 ft 253 kts 111°
2026-05-09 02:35 34.42276 -120.03944 2806 ft 240 kts 86°
2026-05-09 02:35 34.42355 -120.01965 2493 ft 230 kts 84°
2026-05-09 02:35 34.42415 -120.00092 2263 ft 216 kts 84°
2026-05-09 02:36 34.42462 -119.98389 2074 ft 191 kts 85°
2026-05-09 02:36 34.42503 -119.96842 1864 ft 176 kts 85°
2026-05-09 02:36 34.42536 -119.95400 1642 ft 168 kts 85°
2026-05-09 02:36 34.42567 -119.94012 1429 ft 164 kts 86°
2026-05-09 02:37 34.42596 -119.92659 1201 ft 160 kts 86°
2026-05-09 02:37 34.42625 -119.91310 988 ft 159 kts 87°
2026-05-09 02:37 34.42654 -119.89969 775 ft 158 kts 88°
2026-05-09 02:37 34.42682 -119.88648 568 ft 157 kts 88°
2026-05-09 02:38 34.42710 -119.87326 360 ft 156 kts 89°
2026-05-09 02:38 34.42739 -119.86031 160 ft 154 kts 89°
2026-05-09 02:38 34.42769 -119.84764 25 ft 143 kts 90°
2026-05-09 02:38 34.42778 -119.83872 23 ft 63 kts 86°
2026-05-09 02:39 34.42787 -119.83576 20 ft 11 kts 89°
2026-05-09 02:39 34.42765 -119.83493 20 ft 9 kts 125°
2026-05-09 02:39 34.42708 -119.83465 20 ft 8 kts 185°
2026-05-09 02:39 34.42676 -119.83514 20 ft 7 kts 265°
2026-05-09 02:40 34.42675 -119.83588 20 ft 12 kts 271°
2026-05-09 02:40 34.42672 -119.83712 20 ft 13 kts 268°
2026-05-09 02:40 34.42660 -119.83810 20 ft 11 kts 227°
2026-05-09 02:40 34.42593 -119.83810 21 ft 8 kts 168°
2026-05-09 02:41 34.42582 -119.83808 21 ft 1 kts 168°
2026-05-09 02:41 34.42541 -119.83785 22 ft 9 kts 131°
2026-05-09 02:41 34.42517 -119.83733 21 ft 3 kts 114°
2026-05-09 02:41 34.42516 -119.83730 21 ft 0 kts 114°